Location: Altamira
(10.5079°N, 66.8544°W)
Time: 18:49:42
(UTC+00:00)

VEP-3 - Pass Details

Date: 08 December 2021
Orbit: 1055 x 33689 km, 24.2° (Epoch: 16 January)

Event Time Altitude Azimuth Distance (km) Brightness Sun altitude
Rises 22:26:25 0° 242° (WSW) 4,817 8.7 -5.6°
Reaches altitude 10° 22:29:45 10° 239° (WSW) 3,229 7.0 -6.4°
Maximum altitude 22:35:42 71° 155° (SSE) 1,113 2.8 -7.7°
Enters shadow 22:42:43 11° 71° (ENE) 3,779 4.9 -9.3°
